Location: São Paulo
(23.5507°S, 46.6334°W)
Time: 07:42:32
(UTC-03:00)

Transit 2A - Pass Details

Date: 22 February 2026
Orbit: 590 x 954 km, 66.7° (Epoch: 10 March)

Event Time Altitude Azimuth Distance (km) Brightness Sun altitude
Rises 09:04:56 0° 198° (SSW) 3,071 8.9 41.7°
Reaches altitude 10° 09:07:12 10° 194° (SSW) 2,200 8.3 42.2°
Maximum altitude 09:12:11 62° 113° (ESE) 861 7.7 43.3°
Drops below altitude 10° 09:17:41 10° 33° (NNE) 2,421 9.2 44.6°
Sets 09:20:16 0° 29° (NNE) 3,405 9.7 45.1°
